Location: Home
(42.5358°N, 72.7383°W)
Time: 12:40:54
(UTC-05:00)

Explorer 7 - Pass Details

Date: 06 December 2021
Orbit: 483 x 674 km, 50.3° (Epoch: 21 January)

Event Time Altitude Azimuth Distance (km) Brightness Sun altitude
Exits shadow 03:37:09 12° 83° (E) 1,763 10.1 -37.7°
Drops below altitude 10° 03:37:32 10° 80° (E) 1,881 10.3 -37.7°
Sets 03:39:59 0° 67° (ENE) 2,745 11.2 -37.2°
